| time (UTC) | temp F | wind direction | speed MPH | gust MPH | rain 1hr in | rain 24hr in | rain mn in | humidity % | barometer mb |
| 20260906230932 | 83 | 185 | 2.0 | 3.0 | 0.00 | 0.00 | 0.00 | 69 | 1015.3 |
| 20260906230432 | 83 | 186 | 2.0 | 3.0 | 0.00 | 0.00 | 0.00 | 69 | 1015.3 |
| 20260906225932 | 83 | 186 | 0.0 | 3.0 | 0.00 | 0.00 | 0.00 | 70 | 1015.3 |
| 20260906225919 | 83 | 186 | 0.0 | 2.0 | 0.00 | 0.00 | 0.00 | 70 | 1015.4 |
| 20260906224928 | 83 | 186 | 0.0 | 2.0 | 0.00 | 0.00 | 0.00 | 71 | 1015.4 |
| 20260906224412 | 83 | 185 | 0.0 | 1.0 | 0.00 | 0.00 | 0.00 | 69 | 1015.4 |
| 20260906224125 | 83 | 185 | 1.0 | 2.0 | 0.00 | 0.00 | 0.00 | 68 | 1015.4 |
| 20260906223348 | 83 | 185 | 1.0 | 2.0 | 0.00 | 0.00 | 0.00 | 67 | 1015.4 |
| 20260906222830 | 84 | 185 | 0.0 | 2.0 | 0.00 | 0.00 | 0.00 | 67 | 1015.4 |
| 20260906222333 | 84 | 185 | 0.0 | 2.0 | 0.00 | 0.00 | 0.00 | 67 | 1015.3 |
| 20260906221826 | 84 | 187 | 2.0 | 4.0 | 0.00 | 0.00 | 0.00 | 67 | 1015.3 |
| 20260906221327 | 84 | 188 | 2.0 | 4.0 | 0.00 | 0.00 | 0.00 | 66 | 1015.3 |
| 20260906220823 | 84 | 173 | 1.0 | 4.0 | 0.00 | 0.00 | 0.00 | 67 | 1015.4 |
| 20260906220309 | 84 | 161 | 1.0 | 3.0 | 0.00 | 0.00 | 0.00 | 67 | 1015.4 |
| 20260906215809 | 84 | 161 | 1.0 | 3.0 | 0.00 | 0.00 | 0.00 | 67 | 1015.4 |
| 20260906215310 | 84 | 74 | 1.0 | 3.0 | 0.00 | 0.00 | 0.00 | 65 | 1015.5 |
| 20260906214809 | 84 | 74 | 2.0 | 4.0 | 0.00 | 0.00 | 0.00 | 65 | 1015.5 |
| 20260906214310 | 85 | 73 | 2.0 | 4.0 | 0.00 | 0.00 | 0.00 | 65 | 1015.5 |
| 20260906213810 | 85 | 76 | 2.0 | 4.0 | 0.00 | 0.00 | 0.00 | 64 | 1015.5 |
| 20260906213306 | 85 | 74 | 2.0 | 4.0 | 0.00 | 0.00 | 0.00 | 64 | 1015.5 |
| 20260906213244 | 85 | 166 | 2.0 | 4.0 | 0.00 | 0.00 | 0.00 | 65 | 1015.5 |
| 20260906212259 | 85 | 80 | 2.0 | 5.0 | 0.00 | 0.00 | 0.00 | 65 | 1015.5 |
| 20260906211755 | 85 | 338 | 2.0 | 5.0 | 0.00 | 0.00 | 0.00 | 62 | 1015.5 |
| 20260906211254 | 86 | 76 | 2.0 | 3.0 | 0.00 | 0.00 | 0.00 | 62 | 1015.5 |
| 20260906210755 | 87 | 77 | 2.0 | 4.0 | 0.00 | 0.00 | 0.00 | 61 | 1015.6 |
| 20260906210255 | 86 | 329 | 2.0 | 4.0 | 0.00 | 0.00 | 0.00 | 62 | 1015.6 |
| 20260906205744 | 86 | 192 | 3.0 | 5.0 | 0.00 | 0.00 | 0.00 | 63 | 1015.6 |
| 20260906205245 | 86 | 193 | 3.0 | 5.0 | 0.00 | 0.00 | 0.00 | 64 | 1015.6 |
| 20260906204744 | 86 | 185 | 2.0 | 5.0 | 0.00 | 0.00 | 0.00 | 62 | 1015.6 |
| 20260906204242 | 86 | 205 | 2.0 | 6.0 | 0.00 | 0.00 | 0.00 | 62 | 1015.6 |
| 20260906204002 | 86 | 213 | 2.0 | 6.0 | 0.00 | 0.00 | 0.00 | 62 | 1015.7 |
| 20260906203239 | 86 | 213 | 2.0 | 6.0 | 0.00 | 0.00 | 0.00 | 64 | 1015.7 |
| 20260906202740 | 85 | 197 | 2.0 | 6.0 | 0.00 | 0.00 | 0.00 | 64 | 1015.7 |
| 20260906202239 | 85 | 97 | 2.0 | 7.0 | 0.00 | 0.00 | 0.00 | 64 | 1015.9 |
| 20260906201738 | 85 | 69 | 2.0 | 7.0 | 0.00 | 0.00 | 0.00 | 64 | 1015.9 |
| 20260906201457 | 84 | 164 | 2.0 | 6.0 | 0.00 | 0.00 | 0.00 | 66 | 1015.9 |
| 20260906200737 | 84 | 203 | 2.0 | 6.0 | 0.00 | 0.00 | 0.00 | 66 | 1016.1 |
| 20260906200236 | 84 | 101 | 2.0 | 5.0 | 0.00 | 0.00 | 0.00 | 65 | 1016.1 |
| 20260906195729 | 84 | 87 | 2.0 | 5.0 | 0.00 | 0.00 | 0.00 | 66 | 1016.4 |
| 20260906195229 | 83 | 217 | 2.0 | 4.0 | 0.00 | 0.00 | 0.00 | 68 | 1016.4 |
| 20260906194729 | 83 | 130 | 2.0 | 4.0 | 0.00 | 0.00 | 0.00 | 70 | 1016.4 |
| 20260906194229 | 82 | 74 | 2.0 | 4.0 | 0.00 | 0.00 | 0.00 | 69 | 1016.4 |
| 20260906193729 | 82 | 72 | 3.0 | 5.0 | 0.00 | 0.00 | 0.00 | 70 | 1016.4 |
| 20260906193229 | 82 | 70 | 3.0 | 5.0 | 0.00 | 0.00 | 0.00 | 69 | 1016.4 |
| 20260906193003 | 82 | 72 | 2.0 | 6.0 | 0.00 | 0.00 | 0.00 | 71 | 1016.2 |
| 20260906192229 | 82 | 44 | 2.0 | 6.0 | 0.00 | 0.00 | 0.00 | 69 | 1016.2 |
| 20260906191729 | 82 | 71 | 3.0 | 6.0 | 0.00 | 0.00 | 0.00 | 68 | 1016.2 |
| 20260906191230 | 82 | 75 | 3.0 | 6.0 | 0.00 | 0.00 | 0.00 | 72 | 1016.3 |
| 20260906190730 | 82 | 77 | 2.0 | 6.0 | 0.00 | 0.00 | 0.00 | 70 | 1016.3 |
| 20260906190229 | 81 | 74 | 2.0 | 5.0 | 0.00 | 0.00 | 0.00 | 69 | 1016.3 |
| 20260906185729 | 81 | 70 | 2.0 | 5.0 | 0.00 | 0.00 | 0.00 | 72 | 1016.3 |
| 20260906185223 | 81 | 75 | 2.0 | 5.0 | 0.00 | 0.00 | 0.00 | 70 | 1016.3 |
| 20260906184722 | 80 | 70 | 3.0 | 5.0 | 0.00 | 0.00 | 0.00 | 72 | 1016.3 |
| 20260906184649 | 79 | 175 | 3.0 | 5.0 | 0.00 | 0.00 | 0.00 | 76 | 1016.5 |
| 20260906184314 | 80 | 72 | 3.0 | 5.0 | 0.00 | 0.00 | 0.00 | 72 | 1016.5 |
| 20260906183220 | 78 | 73 | 3.0 | 5.0 | 0.00 | 0.00 | 0.00 | 74 | 1016.5 |
| 20260906182719 | 78 | 72 | 3.0 | 5.0 | 0.00 | 0.00 | 0.00 | 74 | 1016.8 |
| 20260906182219 | 78 | 79 | 3.0 | 5.0 | 0.00 | 0.00 | 0.00 | 75 | 1016.8 |
| 20260906181948 | 78 | 71 | 3.0 | 5.0 | 0.00 | 0.00 | 0.00 | 76 | 1016.8 |
| 20260906181219 | 78 | 63 | 3.0 | 5.0 | 0.00 | 0.00 | 0.00 | 76 | 1017.2 |
| 20260906181202 | 78 | 67 | 3.0 | 5.0 | 0.00 | 0.00 | 0.00 | 76 | 1017.2 |
| 20260906180219 | 78 | 78 | 3.0 | 5.0 | 0.00 | 0.00 | 0.00 | 76 | 1017.2 |
| 20260906180200 | 78 | 77 | 3.0 | 6.0 | 0.00 | 0.00 | 0.00 | 75 | 1017.1 |
| 20260906175219 | 78 | 77 | 3.0 | 6.0 | 0.00 | 0.00 | 0.00 | 74 | 1017.1 |
| 20260906174719 | 79 | 74 | 3.0 | 8.0 | 0.00 | 0.00 | 0.00 | 75 | 1017.1 |
| 20260906174222 | 79 | 72 | 3.0 | 8.0 | 0.00 | 0.00 | 0.00 | 75 | 1017.1 |
| 20260906173720 | 79 | 76 | 2.0 | 5.0 | 0.00 | 0.00 | 0.00 | 76 | 1017.1 |
| 20260906173219 | 78 | 89 | 2.0 | 5.0 | 0.00 | 0.00 | 0.00 | 78 | 1017.1 |
| 20260906172720 | 78 | 70 | 2.0 | 5.0 | 0.00 | 0.00 | 0.00 | 79 | 1017.2 |
| 20260906172219 | 78 | 77 | 2.0 | 5.0 | 0.00 | 0.00 | 0.00 | 79 | 1017.2 |
| 20260906171719 | 78 | 73 | 3.0 | 6.0 | 0.00 | 0.00 | 0.00 | 78 | 1017.2 |
| 20260906171712 | 78 | 72 | 3.0 | 6.0 | 0.00 | 0.00 | 0.00 | 80 | 1017.2 |
| 20260906170943 | 78 | 65 | 3.0 | 5.0 | 0.00 | 0.00 | 0.00 | 79 | 1017.2 |
| 20260906170217 | 77 | 71 | 3.0 | 5.0 | 0.00 | 0.00 | 0.00 | 81 | 1017.2 |
| 20260906165716 | 77 | 72 | 2.0 | 5.0 | 0.00 | 0.00 | 0.00 | 79 | 1017.4 |
| 20260906165217 | 76 | 68 | 2.0 | 5.0 | 0.00 | 0.00 | 0.00 | 83 | 1017.4 |
| 20260906164717 | 75 | 49 | 2.0 | 5.0 | 0.00 | 0.00 | 0.00 | 85 | 1017.4 |
| 20260906164444 | 75 | 71 | 2.0 | 4.0 | 0.00 | 0.00 | 0.00 | 88 | 1017.4 |
| 20260906163716 | 74 | 74 | 2.0 | 4.0 | 0.00 | 0.00 | 0.00 | 88 | 1017.4 |
| 20260906163434 | 74 | 74 | 2.0 | 4.0 | 0.00 | 0.00 | 0.00 | 88 | 1017.4 |
| 20260906162932 | 74 | 74 | 2.0 | 3.0 | 0.00 | 0.00 | 0.00 | 88 | 1017.6 |
| 20260906162214 | 74 | 74 | 2.0 | 3.0 | 0.00 | 0.00 | 0.00 | 88 | 1017.6 |
| 20260906161714 | 74 | 74 | 2.0 | 4.0 | 0.00 | 0.00 | 0.00 | 87 | 1017.6 |
| 20260906161204 | 75 | 72 | 2.0 | 4.0 | 0.00 | 0.00 | 0.00 | 88 | 1017.9 |
| 20260906160704 | 75 | 71 | 2.0 | 4.0 | 0.00 | 0.00 | 0.00 | 88 | 1017.9 |
| 20260906160204 | 75 | 71 | 2.0 | 7.0 | 0.00 | 0.00 | 0.00 | 89 | 1017.9 |
| 20260906155704 | 75 | 71 | 2.0 | 7.0 | 0.00 | 0.00 | 0.00 | 90 | 1018.3 |
| 20260906155202 | 76 | 68 | 2.0 | 6.0 | 0.00 | 0.00 | 0.00 | 90 | 1018.3 |
| 20260906154922 | 76 | 325 | 2.0 | 6.0 | 0.00 | 0.00 | 0.00 | 91 | 1018.3 |
| 20260906154202 | 77 | 308 | 2.0 | 4.0 | 0.00 | 0.00 | 0.00 | 91 | 1018.0 |
| 20260906154139 | 77 | 36 | 2.0 | 4.0 | 0.00 | 0.00 | 0.00 | 91 | 1018.0 |
| 20260906153201 | 77 | 266 | 2.0 | 4.0 | 0.00 | 0.00 | 0.00 | 91 | 1018.0 |
| 20260906152927 | 77 | 309 | 2.0 | 4.0 | 0.00 | 0.00 | 0.00 | 91 | 1018.0 |
| 20260906152159 | 76 | 312 | 2.0 | 4.0 | 0.00 | 0.00 | 0.00 | 91 | 1018.0 |
| 20260906151700 | 76 | 330 | 2.0 | 4.0 | 0.00 | 0.00 | 0.00 | 92 | 1018.0 |
| 20260906151159 | 76 | 356 | 2.0 | 4.0 | 0.00 | 0.00 | 0.00 | 92 | 1017.8 |
| 20260906150656 | 76 | 358 | 2.0 | 4.0 | 0.00 | 0.00 | 0.00 | 93 | 1017.8 |
| 20260906150415 | 76 | 358 | 2.0 | 4.0 | 0.00 | 0.00 | 0.00 | 94 | 1017.8 |
| 20260906145624 | 75 | 346 | 1.0 | 4.0 | 0.00 | 0.00 | 0.00 | 94 | 1017.5 |
| 20260906145340 | 75 | 302 | 2.0 | 3.0 | 0.00 | 0.00 | 0.00 | 95 | 1017.5 |
| 20260906144621 | 75 | 303 | 2.0 | 3.0 | 0.00 | 0.00 | 0.00 | 95 | 1017.5 |
| 20260906144122 | 75 | 58 | 2.0 | 4.0 | 0.00 | 0.00 | 0.00 | 95 | 1017.4 |
| 20260906143830 | 75 | 38 | 2.0 | 4.0 | 0.00 | 0.00 | 0.00 | 95 | 1017.4 |
| 20260906143104 | 75 | 59 | 2.0 | 5.0 | 0.00 | 0.00 | 0.00 | 95 | 1017.4 |
| 20260906142549 | 75 | 13 | 2.0 | 5.0 | 0.00 | 0.00 | 0.00 | 95 | 1017.3 |
| 20260906142047 | 75 | 7 | 2.0 | 4.0 | 0.00 | 0.00 | 0.00 | 96 | 1017.3 |
| 20260906142034 | 74 | 72 | 2.0 | 5.0 | 0.00 | 0.00 | 0.00 | 96 | 1017.3 |
| 20260906141305 | 74 | 73 | 2.0 | 5.0 | 0.00 | 0.00 | 0.00 | 97 | 1017.4 |
| 20260906140550 | 74 | 72 | 2.0 | 5.0 | 0.00 | 0.00 | 0.00 | 99 | 1017.4 |
| 20260906140047 | 74 | 68 | 2.0 | 5.0 | 0.00 | 0.00 | 0.00 | 99 | 1017.4 |
| 20260906135546 | 73 | 73 | 2.0 | 3.0 | 0.00 | 0.00 | 0.00 | 99 | 1017.6 |
| 20260906135038 | 73 | 75 | 2.0 | 5.0 | 0.00 | 0.00 | 0.00 | 99 | 1017.6 |
| 20260906134537 | 73 | 172 | 2.0 | 5.0 | 0.00 | 0.00 | 0.00 | 99 | 1017.6 |
| 20260906134029 | 72 | 27 | 2.0 | 4.0 | 0.00 | 0.00 | 0.00 | 99 | 1017.6 |
| 20260906133531 | 72 | 4 | 2.0 | 4.0 | 0.00 | 0.00 | 0.00 | 99 | 1017.6 |
| 20260906133029 | 72 | 346 | 2.0 | 4.0 | 0.00 | 0.00 | 0.00 | 99 | 1017.6 |
| 20260906132531 | 72 | 3 | 2.0 | 4.0 | 0.00 | 0.00 | 0.00 | 99 | 1017.8 |
| 20260906132032 | 72 | 64 | 1.0 | 4.0 | 0.00 | 0.00 | 0.00 | 99 | 1017.8 |
| 20260906131531 | 72 | 63 | 1.0 | 3.0 | 0.00 | 0.00 | 0.00 | 99 | 1017.8 |
| 20260906131024 | 71 | 60 | 1.0 | 3.0 | 0.00 | 0.00 | 0.00 | 99 | 1017.8 |
| 20260906130525 | 71 | 59 | 1.0 | 2.0 | 0.00 | 0.00 | 0.00 | 99 | 1017.8 |
| 20260906130240 | 71 | 59 | 2.0 | 3.0 | 0.00 | 0.00 | 0.00 | 99 | 1017.8 |
| 20260906125520 | 71 | 58 | 2.0 | 3.0 | 0.00 | 0.00 | 0.00 | 99 | 1017.7 |
| 20260906125011 | 71 | 57 | 2.0 | 3.0 | 0.00 | 0.00 | 0.00 | 99 | 1017.7 |
| 20260906124512 | 71 | 8 | 2.0 | 3.0 | 0.00 | 0.00 | 0.00 | 99 | 1017.7 |
| 20260906124011 | 71 | 9 | 0.0 | 3.0 | 0.00 | 0.00 | 0.00 | 99 | 1017.4 |
| 20260906123512 | 71 | 9 | 0.0 | 3.0 | 0.00 | 0.00 | 0.00 | 99 | 1017.4 |
| 20260906123012 | 71 | 9 | 0.0 | 2.0 | 0.00 | 0.00 | 0.00 | 99 | 1017.4 |
| 20260906122506 | 71 | 9 | 0.0 | 2.0 | 0.00 | 0.00 | 0.00 | 99 | 1017.1 |
| 20260906122004 | 71 | 9 | 0.0 | 0.0 | 0.00 | 0.00 | 0.00 | 99 | 1017.1 |
| 20260906121724 | 71 | 9 | 0.0 | 0.0 | 0.00 | 0.00 | 0.00 | 99 | 1017.1 |
| 20260906121001 | 70 | 9 | 0.0 | 0.0 | 0.00 | 0.00 | 0.00 | 99 | 1016.8 |
| 20260906120505 | 70 | 8 | 0.0 | 0.0 | 0.00 | 0.00 | 0.00 | 99 | 1016.8 |
| 20260906115951 | 70 | 8 | 1.0 | 0.0 | 0.00 | 0.00 | 0.00 | 99 | 1016.8 |
| 20260906115452 | 70 | 9 | 1.0 | 3.0 | 0.00 | 0.00 | 0.00 | 99 | 1016.6 |
| 20260906114949 | 70 | 8 | 0.0 | 3.0 | 0.00 | 0.00 | 0.00 | 99 | 1016.6 |
| 20260906114449 | 70 | 9 | 0.0 | 2.0 | 0.00 | 0.00 | 0.00 | 99 | 1016.6 |
| 20260906113950 | 70 | 8 | 0.0 | 1.0 | 0.00 | 0.00 | 0.00 | 99 | 1016.8 |
| 20260906113446 | 70 | 9 | 0.0 | 2.0 | 0.00 | 0.00 | 0.00 | 99 | 1016.8 |
| 20260906112947 | 70 | 8 | 0.0 | 2.0 | 0.00 | 0.00 | 0.00 | 99 | 1016.8 |
| 20260906112446 | 70 | 9 | 0.0 | 2.0 | 0.00 | 0.00 | 0.00 | 99 | 1016.5 |
| 20260906111944 | 70 | 9 | 0.0 | 2.0 | 0.00 | 0.00 | 0.00 | 99 | 1016.5 |
| 20260906111447 | 70 | 8 | 0.0 | 2.0 | 0.00 | 0.00 | 0.00 | 99 | 1016.5 |
| 20260906111208 | 70 | 9 | 0.0 | 2.0 | 0.00 | 0.00 | 0.00 | 99 | 1016.3 |
| 20260906110439 | 70 | 8 | 0.0 | 2.0 | 0.00 | 0.00 | 0.00 | 99 | 1016.3 |
| 20260906105934 | 70 | 9 | 0.0 | 2.0 | 0.00 | 0.00 | 0.00 | 99 | 1016.3 |
| 20260906105432 | 70 | 9 | 0.0 | 0.0 | 0.00 | 0.00 | 0.00 | 99 | 1016.4 |
| 20260906105417 | 70 | 8 | 1.0 | 2.0 | 0.00 | 0.00 | 0.00 | 99 | 1016.4 |
| 20260906104427 | 70 | 8 | 1.0 | 2.0 | 0.00 | 0.00 | 0.00 | 99 | 1016.4 |
| 20260906103913 | 70 | 9 | 1.0 | 2.0 | 0.00 | 0.00 | 0.00 | 99 | 1016.6 |
| 20260906103409 | 70 | 9 | 1.0 | 3.0 | 0.00 | 0.00 | 0.00 | 99 | 1016.6 |
| 20260906102906 | 70 | 9 | 1.0 | 3.0 | 0.00 | 0.00 | 0.00 | 99 | 1016.6 |
| 20260906102406 | 70 | 8 | 1.0 | 3.0 | 0.00 | 0.00 | 0.00 | 99 | 1016.2 |
| 20260906102338 | 70 | 8 | 0.0 | 2.0 | 0.00 | 0.00 | 0.00 | 99 | 1016.2 |
| 20260906101348 | 70 | 8 | 0.0 | 2.0 | 0.00 | 0.00 | 0.00 | 99 | 1016.2 |
| 20260906100847 | 70 | 8 | 1.0 | 2.0 | 0.00 | 0.00 | 0.00 | 99 | 1015.9 |
| 20260906100343 | 70 | 8 | 1.0 | 2.0 | 0.00 | 0.00 | 0.00 | 99 | 1015.9 |
| 20260906095844 | 70 | 8 | 0.0 | 3.0 | 0.00 | 0.00 | 0.00 | 99 | 1015.9 |
| 20260906095546 | 71 | 8 | 0.0 | 3.0 | 0.00 | 0.00 | 0.00 | 99 | 1015.9 |
| 20260906094825 | 71 | 8 | 1.0 | 2.0 | 0.00 | 0.00 | 0.00 | 99 | 1015.9 |
| 20260906094324 | 71 | 8 | 1.0 | 2.0 | 0.00 | 0.00 | 0.00 | 99 | 1015.9 |
| 20260906093754 | 71 | 8 | 1.0 | 3.0 | 0.00 | 0.00 | 0.00 | 99 | 1015.8 |
| 20260906093249 | 71 | 8 | 1.0 | 3.0 | 0.00 | 0.00 | 0.00 | 99 | 1015.8 |
| 20260906092749 | 71 | 8 | 1.0 | 2.0 | 0.00 | 0.00 | 0.00 | 99 | 1015.8 |
| 20260906092458 | 71 | 8 | 1.0 | 2.0 | 0.00 | 0.00 | 0.00 | 99 | 1015.6 |
| 20260906091739 | 71 | 8 | 0.0 | 2.0 | 0.00 | 0.00 | 0.00 | 99 | 1015.6 |
| 20260906091233 | 71 | 8 | 0.0 | 0.0 | 0.00 | 0.00 | 0.00 | 99 | 1015.6 |
| 20260906090729 | 71 | 8 | 0.0 | 2.0 | 0.00 | 0.00 | 0.00 | 99 | 1015.5 |
| 20260906090227 | 71 | 8 | 0.0 | 2.0 | 0.00 | 0.00 | 0.00 | 99 | 1015.5 |
| 20260906085711 | 71 | 8 | 0.0 | 2.0 | 0.00 | 0.00 | 0.00 | 99 | 1015.5 |
| 20260906085202 | 71 | 8 | 1.0 | 2.0 | 0.00 | 0.00 | 0.00 | 99 | 1015.5 |
| 20260906084644 | 71 | 8 | 1.0 | 2.0 | 0.00 | 0.00 | 0.00 | 99 | 1015.5 |
| 20260906084140 | 71 | 8 | 1.0 | 4.0 | 0.00 | 0.00 | 0.00 | 99 | 1015.6 |
| 20260906083852 | 71 | 8 | 1.0 | 4.0 | 0.00 | 0.00 | 0.00 | 99 | 1015.6 |
| 20260906083108 | 71 | 7 | 0.0 | 4.0 | 0.00 | 0.00 | 0.00 | 99 | 1015.6 |
| 20260906082608 | 71 | 8 | 0.0 | 2.0 | 0.00 | 0.00 | 0.00 | 99 | 1015.8 |
| 20260906082105 | 71 | 8 | 2.0 | 1.0 | 0.00 | 0.00 | 0.00 | 99 | 1015.8 |
| 20260906081607 | 71 | 8 | 2.0 | 2.0 | 0.00 | 0.00 | 0.00 | 99 | 1015.8 |
| 20260906081028 | 72 | 8 | 2.0 | 3.0 | 0.00 | 0.00 | 0.00 | 99 | 1015.9 |
| 20260906080522 | 72 | 8 | 2.0 | 5.0 | 0.00 | 0.00 | 0.00 | 99 | 1015.9 |
| 20260906080021 | 72 | 8 | 1.0 | 5.0 | 0.00 | 0.00 | 0.00 | 99 | 1015.9 |
| 20260906075520 | 72 | 359 | 1.0 | 4.0 | 0.00 | 0.00 | 0.00 | 99 | 1016.1 |
| 20260906075229 | 72 | 358 | 2.0 | 3.0 | 0.00 | 0.00 | 0.00 | 99 | 1016.1 |
| 20260906074509 | 72 | 358 | 2.0 | 4.0 | 0.00 | 0.00 | 0.00 | 99 | 1016.1 |
| 20260906074001 | 72 | 358 | 2.0 | 4.0 | 0.00 | 0.00 | 0.00 | 99 | 1016.1 |
| 20260906073501 | 72 | 44 | 2.0 | 4.0 | 0.00 | 0.00 | 0.00 | 99 | 1016.1 |
| 20260906072957 | 72 | 35 | 2.0 | 4.0 | 0.00 | 0.00 | 0.00 | 99 | 1016.1 |
| 20260906072457 | 72 | 11 | 2.0 | 3.0 | 0.00 | 0.00 | 0.00 | 99 | 1016.1 |
| 20260906071937 | 72 | 11 | 0.0 | 3.0 | 0.00 | 0.00 | 0.00 | 98 | 1016.1 |
| 20260906071418 | 72 | 11 | 0.0 | 2.0 | 0.00 | 0.00 | 0.00 | 98 | 1016.1 |
| 20260906071144 | 72 | 11 | 0.0 | 2.0 | 0.00 | 0.00 | 0.00 | 98 | 1016.2 |
| 20260906070415 | 72 | 11 | 0.0 | 2.0 | 0.00 | 0.00 | 0.00 | 98 | 1016.2 |
| 20260906065909 | 72 | 11 | 0.0 | 0.0 | 0.00 | 0.00 | 0.00 | 98 | 1016.2 |
| 20260906065355 | 72 | 11 | 0.0 | 0.0 | 0.00 | 0.00 | 0.00 | 98 | 1016.1 |
| 20260906064845 | 72 | 10 | 0.0 | 0.0 | 0.00 | 0.00 | 0.00 | 98 | 1016.1 |
| 20260906064334 | 73 | 11 | 0.0 | 2.0 | 0.00 | 0.00 | 0.00 | 98 | 1016.1 |
| 20260906063818 | 73 | 11 | 2.0 | 4.0 | 0.00 | 0.00 | 0.00 | 98 | 1016.3 |
| 20260906063309 | 73 | 11 | 2.0 | 4.0 | 0.00 | 0.00 | 0.00 | 98 | 1016.3 |
| 20260906063020 | 72 | 11 | 0.0 | 3.0 | 0.00 | 0.00 | 0.00 | 98 | 1016.3 |
| 20260906062521 | 72 | 11 | 0.0 | 2.0 | 0.00 | 0.00 | 0.00 | 97 | 1016.3 |
| 20260906061750 | 73 | 11 | 1.0 | 3.0 | 0.00 | 0.00 | 0.00 | 97 | 1016.3 |
| 20260906061239 | 73 | 11 | 1.0 | 3.0 | 0.00 | 0.00 | 0.00 | 97 | 1016.3 |
| 20260906060742 | 73 | 11 | 1.0 | 3.0 | 0.00 | 0.00 | 0.00 | 97 | 1016.5 |
| 20260906060231 | 73 | 11 | 1.0 | 3.0 | 0.00 | 0.00 | 0.00 | 97 | 1016.5 |
| 20260906055730 | 73 | 11 | 2.0 | 4.0 | 0.00 | 0.00 | 0.00 | 97 | 1016.5 |
| 20260906055217 | 73 | 11 | 2.0 | 4.0 | 0.00 | 0.00 | 0.00 | 98 | 1016.5 |
| 20260906054715 | 73 | 11 | 0.0 | 4.0 | 0.00 | 0.00 | 0.00 | 97 | 1016.5 |
| 20260906054214 | 73 | 12 | 0.0 | 2.0 | 0.00 | 0.00 | 0.00 | 97 | 1016.6 |
| 20260906053704 | 73 | 13 | 2.0 | 3.0 | 0.00 | 0.00 | 0.00 | 97 | 1016.6 |
| 20260906053151 | 73 | 12 | 2.0 | 4.0 | 0.00 | 0.00 | 0.00 | 97 | 1016.6 |
| 20260906052651 | 73 | 12 | 1.0 | 4.0 | 0.00 | 0.00 | 0.00 | 97 | 1016.6 |
| 20260906052149 | 73 | 12 | 1.0 | 2.0 | 0.00 | 0.00 | 0.00 | 96 | 1016.6 |
| 20260906051649 | 73 | 12 | 0.0 | 2.0 | 0.00 | 0.00 | 0.00 | 96 | 1016.6 |
| 20260906051148 | 74 | 12 | 0.0 | 0.0 | 0.00 | 0.00 | 0.00 | 96 | 1016.8 |
| 20260906050641 | 74 | 12 | 1.0 | 0.0 | 0.00 | 0.00 | 0.00 | 96 | 1016.8 |
| 20260906050352 | 74 | 12 | 1.0 | 4.0 | 0.00 | 0.00 | 0.00 | 96 | 1016.8 |
| 20260906045627 | 74 | 12 | 2.0 | 4.0 | 0.00 | 0.00 | 0.00 | 96 | 1016.9 |
| 20260906045122 | 74 | 13 | 2.0 | 4.0 | 0.00 | 0.00 | 0.00 | 96 | 1016.9 |
| 20260906044621 | 74 | 12 | 3.0 | 5.0 | 0.00 | 0.00 | 0.00 | 96 | 1016.9 |
| 20260906044121 | 74 | 5 | 3.0 | 5.0 | 0.00 | 0.00 | 0.00 | 96 | 1016.6 |
| 20260906043618 | 74 | 355 | 0.0 | 4.0 | 0.00 | 0.00 | 0.00 | 96 | 1016.6 |
| 20260906043119 | 74 | 18 | 1.0 | 3.0 | 0.00 | 0.00 | 0.00 | 96 | 1016.6 |
| 20260906042837 | 74 | 18 | 1.0 | 2.0 | 0.00 | 0.00 | 0.00 | 95 | 1016.4 |
| 20260906042053 | 74 | 18 | 3.0 | 4.0 | 0.00 | 0.00 | 0.00 | 95 | 1016.4 |
| 20260906041551 | 74 | 18 | 3.0 | 4.0 | 0.00 | 0.00 | 0.00 | 96 | 1016.4 |
| 20260906041044 | 74 | 8 | 2.0 | 4.0 | 0.00 | 0.00 | 0.00 | 96 | 1016.6 |
| 20260906040543 | 74 | 9 | 2.0 | 4.0 | 0.00 | 0.00 | 0.00 | 96 | 1016.6 |
| 20260906040041 | 74 | 3 | 2.0 | 4.0 | 0.00 | 0.00 | 0.00 | 95 | 1016.6 |
| 20260906035801 | 74 | 353 | 2.0 | 4.0 | 0.00 | 0.00 | 0.00 | 95 | 1016.5 |
| 20260906035041 | 74 | 353 | 2.0 | 4.0 | 0.00 | 0.00 | 0.00 | 95 | 1016.5 |
| 20260906034538 | 74 | 353 | 2.0 | 3.0 | 0.00 | 0.00 | 0.00 | 95 | 1016.5 |
| 20260906034039 | 75 | 67 | 0.0 | 3.0 | 0.00 | 0.00 | 0.00 | 94 | 1016.7 |
| 20260906033542 | 75 | 15 | 0.0 | 2.0 | 0.00 | 0.00 | 0.00 | 94 | 1016.7 |
| 20260906033035 | 75 | 11 | 0.0 | 2.0 | 0.00 | 0.00 | 0.00 | 93 | 1016.7 |
| 20260906032526 | 75 | 11 | 0.0 | 2.0 | 0.00 | 0.00 | 0.00 | 93 | 1017.0 |
| 20260906032025 | 75 | 11 | 1.0 | 3.0 | 0.00 | 0.00 | 0.00 | 93 | 1017.0 |
| 20260906031522 | 75 | 10 | 1.0 | 3.0 | 0.00 | 0.00 | 0.00 | 94 | 1017.0 |
| 20260906031024 | 75 | 10 | 0.0 | 3.0 | 0.00 | 0.00 | 0.00 | 93 | 1016.9 |
| 20260906030511 | 75 | 10 | 0.0 | 1.0 | 0.00 | 0.00 | 0.00 | 93 | 1016.9 |
| 20260906030011 | 75 | 11 | 0.0 | 1.0 | 0.00 | 0.00 | 0.00 | 92 | 1016.9 |
| 20260906025504 | 75 | 11 | 0.0 | 0.0 | 0.00 | 0.00 | 0.00 | 92 | 1016.8 |
| 20260906024951 | 75 | 10 | 1.0 | 2.0 | 0.00 | 0.00 | 0.00 | 92 | 1016.8 |
| 20260906024451 | 76 | 11 | 1.0 | 2.0 | 0.00 | 0.00 | 0.00 | 92 | 1016.8 |
| 20260906023921 | 76 | 10 | 1.0 | 2.0 | 0.00 | 0.00 | 0.00 | 91 | 1016.8 |
| 20260906023422 | 76 | 11 | 1.0 | 2.0 | 0.00 | 0.00 | 0.00 | 91 | 1016.8 |
| 20260906022910 | 76 | 10 | 1.0 | 3.0 | 0.00 | 0.00 | 0.00 | 90 | 1016.8 |
| 20260906022618 | 76 | 10 | 1.0 | 3.0 | 0.00 | 0.00 | 0.00 | 89 | 1016.8 |
| 20260906021858 | 77 | 11 | 1.0 | 2.0 | 0.00 | 0.00 | 0.00 | 89 | 1016.8 |
| 20260906021539 | 77 | 10 | 1.0 | 2.0 | 0.00 | 0.00 | 0.00 | 88 | 1016.8 |
| 20260906021034 | 77 | 10 | 2.0 | 2.0 | 0.00 | 0.00 | 0.00 | 88 | 1016.7 |
| 20260906020519 | 77 | 11 | 2.0 | 3.0 | 0.00 | 0.00 | 0.00 | 88 | 1016.7 |
| 20260906020019 | 77 | 11 | 3.0 | 4.0 | 0.00 | 0.00 | 0.00 | 87 | 1016.7 |
| 20260906015505 | 77 | 10 | 3.0 | 4.0 | 0.00 | 0.00 | 0.00 | 87 | 1016.6 |
| 20260906015004 | 77 | 10 | 2.0 | 5.0 | 0.00 | 0.00 | 0.00 | 88 | 1016.6 |
| 20260906014727 | 77 | 346 | 2.0 | 5.0 | 0.00 | 0.00 | 0.00 | 88 | 1016.6 |
| 20260906014002 | 78 | 23 | 1.0 | 4.0 | 0.00 | 0.00 | 0.00 | 87 | 1016.4 |
| 20260906013501 | 78 | 342 | 1.0 | 3.0 | 0.00 | 0.00 | 0.00 | 87 | 1016.4 |
| 20260906013005 | 78 | 343 | 0.0 | 2.0 | 0.00 | 0.00 | 0.00 | 87 | 1016.4 |
| 20260906012451 | 78 | 342 | 0.0 | 2.0 | 0.00 | 0.00 | 0.00 | 86 | 1016.2 |
| 20260906011949 | 78 | 342 | 0.0 | 2.0 | 0.00 | 0.00 | 0.00 | 85 | 1016.2 |
| 20260906011439 | 78 | 343 | 0.0 | 2.0 | 0.00 | 0.00 | 0.00 | 85 | 1016.2 |
| 20260906011155 | 78 | 343 | 2.0 | 2.0 | 0.00 | 0.00 | 0.00 | 85 | 1016.2 |
| 20260906010429 | 78 | 343 | 2.0 | 4.0 | 0.00 | 0.00 | 0.00 | 84 | 1016.2 |
| 20260906005929 | 79 | 342 | 1.0 | 4.0 | 0.00 | 0.00 | 0.00 | 84 | 1016.2 |
| 20260906005910 | 79 | 342 | 1.0 | 3.0 | 0.00 | 0.00 | 0.00 | 83 | 1015.9 |
| 20260906004906 | 79 | 342 | 2.0 | 3.0 | 0.00 | 0.00 | 0.00 | 83 | 1015.9 |
| 20260906004408 | 79 | 343 | 2.0 | 3.0 | 0.00 | 0.00 | 0.00 | 83 | 1015.9 |
| 20260906003901 | 79 | 342 | 0.0 | 3.0 | 0.00 | 0.00 | 0.00 | 83 | 1015.8 |
| 20260906003623 | 79 | 343 | 0.0 | 3.0 | 0.00 | 0.00 | 0.00 | 83 | 1015.8 |
| 20260906002900 | 80 | 343 | 2.0 | 4.0 | 0.00 | 0.00 | 0.00 | 83 | 1015.8 |
| 20260906002617 | 80 | 342 | 2.0 | 4.0 | 0.00 | 0.00 | 0.00 | 82 | 1015.7 |
| 20260906002341 | 80 | 342 | 2.0 | 4.0 | 0.00 | 0.00 | 0.00 | 82 | 1015.7 |
| 20260906001402 | 80 | 342 | 2.0 | 4.0 | 0.00 | 0.00 | 0.00 | 81 | 1015.7 |
| 20260906000902 | 81 | 202 | 1.0 | 4.0 | 0.00 | 0.00 | 0.00 | 78 | 1015.7 |
| 20260906000403 | 82 | 202 | 1.0 | 3.0 | 0.00 | 0.00 | 0.00 | 76 | 1015.7 |
| 20260905235841 | 82 | 202 | 0.0 | 2.0 | 0.00 | 0.00 | 0.00 | 75 | 1015.7 |
| 20260905235340 | 83 | 202 | 0.0 | 2.0 | 0.00 | 0.00 | 0.00 | 74 | 1015.7 |
| 20260905234819 | 83 | 202 | 0.0 | 2.0 | 0.00 | 0.00 | 0.00 | 73 | 1015.7 |
| 20260905234319 | 84 | 202 | 0.0 | 2.0 | 0.00 | 0.00 | 0.00 | 71 | 1015.7 |
| 20260905233814 | 85 | 202 | 1.0 | 2.0 | 0.00 | 0.00 | 0.00 | 71 | 1015.7 |
| 20260905232753 | 85 | 202 | 2.0 | 4.0 | 0.00 | 0.00 | 0.00 | 69 | 1015.7 |
| 20260905232255 | 86 | 202 | 2.0 | 5.0 | 0.00 | 0.00 | 0.00 | 68 | 1015.6 |
| 20260905231750 | 86 | 202 | 2.0 | 5.0 | 0.00 | 0.00 | 0.00 | 66 | 1015.6 |
| 20260905231246 | 86 | 209 | 2.0 | 5.0 | 0.00 | 0.00 | 0.00 | 66 | 1015.6 |